Provo, UT

2:44 AM MDT on August 24, 2016 (GMT -0600)
Provo Municipal

Weather History for KPVU - April, 2014

Change the Weather History Date:

Monday, April 14, 2014

  Actual Average Record
Temperature  
Mean Temperature 42 °F -  
Max Temperature 53 °F 57 °F 78 °F (2002)
Min Temperature 30 °F 34 °F 30 °F (1986)
Degree Days  
Heating Degree Days 24    
Moisture  
Dew Point 23 °F    
Average Humidity 49    
Maximum Humidity 70    
Minimum Humidity 26    
Precipitation  
Precipitation 0.00 in - - ()
Sea Level Pressure  
Sea Level Pressure 30.24 in    
Wind  
Wind Speed 8 mph (NNW)    
Max Wind Speed 16 mph    
Max Gust Speed -    
Visibility 12 miles    
Events      
Averages and records for this station are not official NWS values.
T = Trace of Precipitation, MM = Missing Value Source: NWS Daily Summary

Daily Weather History Graph

Daily Weather History Graph

Search for Another Location

Airport or City:

Trip Planner

Search our weather history database for the weather conditions in past years. The results will help you decide how hot, cold, wet, or windy it might be!

Date:

Astronomy

Apr. 14, 2014 Rise Set
Actual Time 6:50 AM MDT 8:04 PM MDT
Civil Twilight 6:22 AM MDT 8:32 PM MDT
Nautical Twilight 5:48 AM MDT 9:06 PM MDT
Astronomical Twilight 5:13 AM MDT 9:41 PM MDT
Moon 7:47 PM MDT (4/14) 6:24 AM MDT (4/14)
Length of Visible Light 14h 10m
Length of Day
13h 14m
Full, 100% of the Moon is Illuminated
Apr 14
Full
Apr 15
Full
Apr 22
Last Quarter
Apr 29
New
May 6
First Quarter

Hourly Weather History & Observations

Time (MDT) Temp. Windchill Dew Point Humidity Pressure Visibility Wind Dir Wind Speed Gust Speed Precip Events Conditions
12:15 AM 41.0 °F 34.3 °F 17.6 °F 39% 30.17 in 10.0 mi NW 11.5 mph - N/A   Clear
12:35 AM 41.0 °F 33.5 °F 21.2 °F 45% 30.17 in 10.0 mi NW 13.8 mph - N/A   Clear
12:55 AM 41.0 °F 33.1 °F 21.2 °F 45% 30.19 in 10.0 mi NW 15.0 mph - N/A   Clear
1:15 AM 41.0 °F 32.8 °F 23.0 °F 49% 30.19 in 10.0 mi NW 16.1 mph - N/A   Clear
1:35 AM 41.0 °F 33.1 °F 23.0 °F 49% 30.20 in 10.0 mi NNW 15.0 mph - N/A   Clear
1:55 AM 41.0 °F 33.5 °F 21.2 °F 45% 30.20 in 10.0 mi NNW 13.8 mph - N/A   Clear
2:15 AM 37.4 °F 32.1 °F 21.2 °F 52% 30.21 in 10.0 mi North 6.9 mph - N/A   Clear
2:35 AM 39.2 °F 33.6 °F 23.0 °F 52% 30.22 in 10.0 mi North 8.1 mph - N/A   Clear
2:55 AM 39.2 °F 33.6 °F 23.0 °F 52% 30.23 in 10.0 mi NNW 8.1 mph - N/A   Clear
3:15 AM 39.2 °F 35.0 °F 21.2 °F 49% 30.23 in 10.0 mi NNW 5.8 mph - N/A   Clear
3:35 AM 37.4 °F 31.4 °F 23.0 °F 56% 30.23 in 10.0 mi NNW 8.1 mph - N/A   Clear
3:55 AM 37.4 °F 34.9 °F 21.2 °F 52% 30.24 in 10.0 mi NE 3.5 mph - N/A   Clear
4:15 AM 35.6 °F 30.7 °F 23.0 °F 60% 30.25 in 10.0 mi ENE 5.8 mph - N/A   Clear
4:35 AM 33.8 °F 28.6 °F 24.8 °F 70% 30.25 in 10.0 mi NNE 5.8 mph - N/A   Clear
4:55 AM 30.2 °F - 21.2 °F 69% 30.26 in 10.0 mi Calm Calm - N/A   Clear
5:15 AM 33.8 °F 27.0 °F 21.2 °F 60% 30.27 in 10.0 mi SSE 8.1 mph - N/A   Clear
5:35 AM 35.6 °F 28.0 °F 24.8 °F 65% 30.27 in 10.0 mi SSE 10.4 mph - N/A   Clear
5:55 AM 33.8 °F 28.6 °F 24.8 °F 70% 30.28 in 10.0 mi East 5.8 mph - N/A   Clear
6:15 AM 33.8 °F 30.8 °F 24.8 °F 70% 30.28 in 10.0 mi NE 3.5 mph - N/A   Clear
6:35 AM 35.6 °F 30.7 °F 21.2 °F 56% 30.30 in 10.0 mi West 5.8 mph - N/A   Clear
6:50 AM 35.6 °F 31.7 °F 19.4 °F 52% 30.30 in 15.0 mi West 4.6 mph - N/A   Partly Cloudy
7:56 AM 35.6 °F 31.7 °F 23.0 °F 60% 30.32 in 15.0 mi NNE 4.6 mph - N/A   Partly Cloudy
8:49 AM 39.2 °F 35.0 °F 23.0 °F 52% 30.34 in 15.0 mi East 5.8 mph - N/A   Clear
9:50 AM 42.8 °F 37.5 °F 23.0 °F 46% 30.34 in 15.0 mi SSE 9.2 mph - N/A   Partly Cloudy
10:59 AM 44.6 °F 40.7 °F 24.8 °F 46% 30.35 in 15.0 mi SW 6.9 mph - N/A   Partly Cloudy
11:55 AM 44.6 °F 40.7 °F 26.6 °F 49% 30.35 in 15.0 mi SW 6.9 mph - N/A   Partly Cloudy
12:52 PM 46.4 °F 42.9 °F 21.2 °F 37% 30.33 in 15.0 mi SW 6.9 mph - N/A   Partly Cloudy
3:04 PM 50.0 °F - 19.4 °F 30% 30.29 in 15.0 mi WSW 5.8 mph - N/A   Partly Cloudy
3:59 PM 51.8 °F - 23.0 °F 33% 30.27 in 15.0 mi WSW 6.9 mph - N/A   Partly Cloudy
4:55 PM 53.6 °F - 21.2 °F 28% 30.25 in 15.0 mi WSW 3.5 mph - N/A   Partly Cloudy
5:55 PM 53.6 °F - 19.4 °F 26% 30.23 in 15.0 mi Calm Calm - N/A   Clear
6:58 PM 53.6 °F - 19.4 °F 26% 30.22 in 15.0 mi Calm Calm - N/A   Clear
7:49 PM 51.8 °F - 21.2 °F 30% 30.20 in 15.0 mi Calm Calm - N/A   Clear
8:49 PM 48.2 °F - 24.8 °F 40% 30.20 in 15.0 mi Calm Calm - N/A   Clear
8:55 PM 48.2 °F - 24.8 °F 40% 30.21 in 10.0 mi Calm Calm - N/A   Clear
9:15 PM 46.4 °F - 24.8 °F 43% 30.21 in 10.0 mi Calm Calm - N/A   Clear
9:35 PM 46.4 °F 45.2 °F 26.6 °F 46% 30.21 in 10.0 mi NE 3.5 mph - N/A   Clear
9:55 PM 44.6 °F 43.1 °F 24.8 °F 46% 30.22 in 10.0 mi East 3.5 mph - N/A   Clear
10:15 PM 44.6 °F 42.2 °F 26.6 °F 49% 30.21 in 10.0 mi SE 4.6 mph - N/A   Clear
10:35 PM 42.8 °F - 28.4 °F 57% 30.21 in 10.0 mi Calm Calm - N/A   Clear
10:55 PM 42.8 °F - 28.4 °F 57% 30.20 in 10.0 mi Calm Calm - N/A   Clear
11:15 PM 42.8 °F 40.1 °F 28.4 °F 57% 30.20 in 10.0 mi SSE 4.6 mph - N/A   Clear
11:35 PM 39.2 °F 35.0 °F 26.6 °F 61% 30.19 in 10.0 mi SSE 5.8 mph - N/A   Clear
11:55 PM 41.0 °F 39.0 °F 26.6 °F 57% 30.20 in 10.0 mi SE 3.5 mph - N/A   Clear